User: anonymous   Login
Location: Unspecified
(0.0000°N, 0.0000°E)
Time: 04:35:18
(UTC+00:00)
Language:

PHISAT 2 - Orbit

View from above orbital plane
View from above orbital plane
View from above satellite
View from above satellite

Ground track
Ground track

The orbit is defined by the following mean orbital elements,

1 60470U          26145.43129446 +.00000000 +00000-0 +22897-3 0 00002
2 60470  97.3755 224.7805 0001200  38.8654 321.2673 15.30672178    04
Epoch (UTC): 25 May 2026 10:21:03
Eccentricity: 0.0001200
inclination: 97.3755°
perigee height: 473 km
apogee height: 475 km
right ascension of ascending node: 224.7805°
argument of perigee: 38.8654°
revolutions per day: 15.30672178
mean anomaly at epoch: 321.2673°

The dashed part of the orbit path shows where the satellite is in the earth's shadow,  

DLR